User: anonymous   Login
Location: Oshawa
(43.9000°N, 78.8670°W)
Time: 20:26:08
(UTC-05:00)
Language:

Cosmos 2333 Rocket - Orbit

View from above orbital plane
View from above orbital plane
View from above satellite
View from above satellite

Ground track
Ground track

The orbit data is extracted from the following two-line orbital elements,

1 24298U 96051B   18047.89847194 -.00000120 +00000-0 -38423-4 0  9995
2 24298 070.8406 266.3605 0016690 187.0202 173.0687 14.12465983106116
Epoch (UTC): 16 February 2018 21:33:47
Eccentricity: 0.0016690
inclination: 70.8406°
perigee height: 839 km
apogee height: 863 km
right ascension of ascending node: 266.3605°
argument of perigee: 187.0202°
revolutions per day: 14.12465983
mean anomaly at epoch: 173.0687°
orbit number at epoch: 10611

The dashed part of the orbit path shows where the satellite is in the earth's shadow,  

DLR